User: anonymous
Location: Caltech
(34.1382°N, 118.1253°W)
Time: 22:56:53
(UTC-07:00)
Language:

SO-50 - Orbit

View from above orbital plane
View from above orbital plane
View from above satellite
View from above satellite

Ground track
Ground track

The orbit data is extracted from the following two-line orbital elements,

1 27607U 02058C   14272.10355476  .00001741  00000-0  27784-3 0  5264
2 27607 064.5555 275.5302 0060425 342.9767 016.9306 14.73935421632794
Epoch (UTC): 29 September 2014 02:29:07
Eccentricity: 0.0060425
inclination: 64.5555°
perigee height: 606 km
apogee height: 691 km
right ascension of ascending node: 275.5302°
argument of perigee: 342.9767°
revolutions per day: 14.73935421
mean anomaly at epoch: 16.9306°
orbit number at epoch: 63279

The dashed part of the orbit path shows where the satellite is in the earth's shadow,  

DLR